Radiation Dose at Monitoring Post of Fukushima Daini Nuclear Power Station
Date,Time,MP-1(microSv/h),MP-2(microSv/h),MP-3(microSv/h),MP-4(microSv/h),MP-5(microSv/h),MP-6(microSv/h),MP-7(microSv/h),Wind Direction,Wind Velocity(m/s),Rain
2015/10/19,00:00,0.514,0.291,0.534,0.491,0.459,0.238,0.209,northwest,4.2,No
2015/10/19,00:10,0.511,0.293,0.537,0.491,0.457,0.239,0.209,northwest,4.5,No
2015/10/19,00:20,0.508,0.291,0.535,0.489,0.459,0.239,0.208,north-northwest,4.4,No
2015/10/19,00:30,0.512,0.294,0.535,0.492,0.458,0.238,0.210,north-northwest,4.8,No
2015/10/19,00:40,0.511,0.292,0.536,0.489,0.458,0.240,0.208,north-northwest,5.6,No
2015/10/19,00:50,0.514,0.291,0.535,0.493,0.461,0.239,0.208,north-northwest,5.3,No
2015/10/19,01:00,0.508,0.292,0.536,0.490,0.456,0.239,0.209,north,4.6,No
2015/10/19,01:10,0.512,0.291,0.533,0.491,0.461,0.239,0.209,north,4.7,No
2015/10/19,01:20,0.509,0.294,0.536,0.491,0.456,0.240,0.208,north,4.8,No
2015/10/19,01:30,0.512,0.291,0.532,0.488,0.460,0.240,0.209,north,5.6,No
2015/10/19,01:40,0.510,0.291,0.536,0.489,0.457,0.239,0.209,north,7.0,No
2015/10/19,01:50,0.513,0.292,0.535,0.488,0.460,0.240,0.208,north,6.7,No
2015/10/19,02:00,0.511,0.291,0.539,0.493,0.459,0.238,0.209,north,5.9,No
2015/10/19,02:10,0.510,0.292,0.534,0.488,0.459,0.239,0.208,north-northwest,5.1,No
2015/10/19,02:20,0.511,0.291,0.534,0.492,0.459,0.240,0.208,north-northwest,6.2,No
2015/10/19,02:30,0.509,0.291,0.538,0.490,0.458,0.239,0.209,north,6.2,No
2015/10/19,02:40,0.511,0.292,0.532,0.490,0.460,0.240,0.210,north-northwest,7.6,No
2015/10/19,02:50,0.509,0.290,0.537,0.490,0.457,0.239,0.209,north-northwest,7.0,No
2015/10/19,03:00,0.510,0.292,0.534,0.489,0.459,0.239,0.208,north-northwest,6.6,No
2015/10/19,03:10,0.509,0.290,0.539,0.491,0.459,0.240,0.208,north,6.7,No
2015/10/19,03:20,0.512,0.293,0.533,0.487,0.457,0.238,0.207,north,6.2,No
2015/10/19,03:30,0.508,0.291,0.536,0.493,0.459,0.239,0.209,north-northwest,6.3,No
2015/10/19,03:40,0.512,0.291,0.534,0.487,0.456,0.240,0.209,north-northwest,5.8,No
2015/10/19,03:50,0.512,0.291,0.534,0.488,0.459,0.239,0.209,north-northwest,5.8,No
2015/10/19,04:00,0.511,0.290,0.535,0.490,0.457,0.239,0.209,north-northwest,4.0,No
2015/10/19,04:10,0.510,0.290,0.533,0.488,0.458,0.239,0.208,north-northwest,4.0,No
2015/10/19,04:20,0.509,0.292,0.537,0.491,0.457,0.239,0.208,north-northwest,4.1,No
2015/10/19,04:30,0.512,0.290,0.532,0.487,0.456,0.238,0.209,northwest,4.1,No
2015/10/19,04:40,0.511,0.292,0.537,0.489,0.458,0.238,0.206,northwest,4.0,No
2015/10/19,04:50,0.512,0.290,0.535,0.490,0.456,0.238,0.207,northwest,4.4,No
2015/10/19,05:00,0.507,0.290,0.535,0.487,0.459,0.240,0.208,north-northwest,3.6,No
2015/10/19,05:10,0.513,0.292,0.534,0.491,0.456,0.238,0.208,north,3.9,No
2015/10/19,05:20,0.511,0.289,0.532,0.487,0.456,0.239,0.207,north,4.0,No
2015/10/19,05:30,0.509,0.290,0.536,0.490,0.455,0.237,0.208,north,3.3,No
2015/10/19,05:40,0.511,0.290,0.534,0.489,0.456,0.239,0.208,north,4.1,No
2015/10/19,05:50,0.508,0.291,0.536,0.489,0.458,0.239,0.208,north-northwest,3.2,No
2015/10/19,06:00,0.512,0.292,0.535,0.488,0.455,0.237,0.208,north-northwest,3.2,No
2015/10/19,06:10,0.508,0.291,0.534,0.486,0.457,0.237,0.207,north-northwest,3.0,No
2015/10/19,06:20,0.511,0.291,0.536,0.491,0.456,0.239,0.207,north-northwest,2.5,No
2015/10/19,06:30,0.508,0.292,0.530,0.485,0.457,0.239,0.207,north-northwest,3.3,No
2015/10/19,06:40,0.508,0.289,0.536,0.488,0.458,0.238,0.208,north-northwest,3.9,No
2015/10/19,06:50,0.511,0.291,0.533,0.488,0.456,0.239,0.207,north-northwest,4.7,No
2015/10/19,07:00,0.506,0.291,0.534,0.487,0.458,0.237,0.207,north-northwest,5.4,No
2015/10/19,07:10,0.510,0.289,0.533,0.490,0.455,0.239,0.207,north-northwest,5.3,No
2015/10/19,07:20,0.508,0.291,0.532,0.488,0.459,0.239,0.208,north-northwest,5.0,No
2015/10/19,07:30,0.509,0.289,0.536,0.490,0.455,0.238,0.206,north-northwest,6.4,No
2015/10/19,07:40,0.509,0.289,0.531,0.485,0.460,0.238,0.209,north-northwest,7.5,No
2015/10/19,07:50,0.512,0.290,0.536,0.490,0.456,0.238,0.207,north-northwest,6.5,No
2015/10/19,08:00,0.508,0.291,0.531,0.485,0.459,0.239,0.207,north-northwest,5.4,No
2015/10/19,08:10,0.513,0.291,0.537,0.490,0.454,0.238,0.209,north-northwest,3.6,No
2015/10/19,08:20,0.508,0.290,0.531,0.485,0.460,0.237,0.208,north-northwest,4.3,No
2015/10/19,08:30,0.512,0.289,0.535,0.487,0.454,0.239,0.206,north-northwest,3.7,No
2015/10/19,08:40,0.506,0.290,0.530,0.487,0.460,0.238,0.207,north,3.8,No
2015/10/19,08:50,0.511,0.288,0.535,0.484,0.454,0.237,0.207,north,5.7,No
2015/10/19,09:00,0.508,0.288,0.531,0.491,0.456,0.237,0.207,north,5.3,No
2015/10/19,09:10,0.504,0.291,0.533,0.485,0.458,0.238,0.206,north,6.4,No
2015/10/19,09:20,0.509,0.289,0.533,0.483,0.452,0.237,0.206,north-northeast,9.4,No
2015/10/19,09:30,0.508,0.288,0.531,0.491,0.457,0.238,0.207,north-northeast,8.3,No
2015/10/19,09:40,0.504,0.291,0.535,0.488,0.459,0.238,0.207,north,9.2,No
2015/10/19,09:50,0.512,0.289,0.528,0.484,0.454,0.237,0.208,north-northeast,9.1,No
2015/10/19,10:00,0.509,0.290,0.536,0.481,0.459,0.238,0.206,north-northeast,8.6,No
2015/10/19,10:10,0.508,0.290,0.530,0.487,0.460,0.238,0.206,north-northeast,8.0,No
2015/10/19,10:20,0.513,0.289,0.533,0.491,0.454,0.237,0.208,north,6.7,No
2015/10/19,10:30,0.509,0.292,0.535,0.486,0.460,0.240,0.209,north-northeast,7.8,No
2015/10/19,10:40,0.509,0.291,0.528,0.486,0.461,0.239,0.213,north-northeast,8.2,No
2015/10/19,10:50,0.513,0.288,0.535,0.492,0.454,0.239,0.212,north,6.4,No
2015/10/19,11:00,0.508,0.292,0.532,0.487,0.459,0.238,0.212,north-northeast,5.3,No
2015/10/19,11:10,0.513,0.292,0.531,0.486,0.460,0.239,0.211,north-northeast,5.6,Yes
2015/10/19,11:20,0.513,0.291,0.536,0.493,0.457,0.239,0.210,northeast,5.9,Yes
2015/10/19,11:30,0.513,0.292,0.532,0.490,0.464,0.240,0.208,northeast,6.3,Yes
2015/10/19,11:40,0.514,0.290,0.535,0.490,0.459,0.238,0.210,northeast,5.8,Yes
2015/10/19,11:50,0.511,0.293,0.533,0.492,0.462,0.239,0.208,northeast,5.9,Yes
2015/10/19,12:00,0.515,0.290,0.538,0.489,0.460,0.237,0.209,northeast,6.4,Yes
2015/10/19,12:10,0.510,0.293,0.535,0.493,0.461,0.239,0.210,east-northeast,4.7,Yes
2015/10/19,12:20,0.515,0.291,0.534,0.489,0.461,0.238,0.208,northeast,5.1,Yes
2015/10/19,12:30,0.511,0.293,0.537,0.495,0.459,0.239,0.210,northeast,5.9,Yes
2015/10/19,12:40,0.514,0.291,0.533,0.489,0.461,0.240,0.209,northeast,4.8,Yes
2015/10/19,12:50,0.512,0.292,0.537,0.494,0.458,0.240,0.210,east-northeast,2.3,Yes
2015/10/19,13:00,0.511,0.292,0.532,0.489,0.462,0.241,0.209,north-northwest,1.4,Yes
2015/10/19,13:10,0.514,0.292,0.538,0.492,0.458,0.240,0.210,west-northwest,1.1,Yes
2015/10/19,13:20,0.510,0.292,0.531,0.490,0.463,0.242,0.209,north,2.2,Yes
2015/10/19,13:30,0.514,0.293,0.538,0.494,0.457,0.243,0.212,northeast,1.7,Yes
2015/10/19,13:40,0.508,0.292,0.534,0.494,0.463,0.242,0.210,east,2.3,Yes
2015/10/19,13:50,0.515,0.291,0.537,0.491,0.458,0.241,0.210,east-northeast,5.9,Yes
2015/10/19,14:00,0.510,0.292,0.534,0.494,0.462,0.242,0.211,east,5.5,Yes
2015/10/19,14:10,0.514,0.293,0.537,0.492,0.459,0.242,0.211,east,4.4,Yes
2015/10/19,14:20,0.510,0.293,0.539,0.492,0.463,0.242,0.211,east,3.3,Yes
2015/10/19,14:30,0.515,0.294,0.544,0.494,0.460,0.242,0.211,north-northeast,1.4,Yes
2015/10/19,14:40,0.512,0.297,0.540,0.496,0.464,0.244,0.213,north,3.8,Yes
2015/10/19,14:50,0.517,0.303,0.545,0.496,0.461,0.245,0.211,north,2.0,Yes
2015/10/19,15:00,0.512,0.299,0.541,0.496,0.465,0.246,0.213,east,0.8,Yes
2015/10/19,15:10,0.516,0.299,0.541,0.496,0.458,0.244,0.211,east,3.6,Yes
2015/10/19,15:20,0.514,0.296,0.537,0.490,0.463,0.244,0.212,east-northeast,4.3,No
2015/10/19,15:30,0.514,0.297,0.538,0.492,0.457,0.243,0.211,east-northeast,4.0,Yes
2015/10/19,15:40,0.513,0.294,0.531,0.488,0.459,0.242,0.209,east-northeast,3.8,Yes
2015/10/19,15:50,0.512,0.296,0.534,0.487,0.457,0.241,0.210,east-northeast,4.6,Yes
2015/10/19,16:00,0.513,0.292,0.530,0.486,0.461,0.240,0.209,east-northeast,3.6,Yes
2015/10/19,16:10,0.511,0.293,0.534,0.488,0.453,0.238,0.210,east,4.1,No
2015/10/19,16:20,0.513,0.290,0.529,0.485,0.458,0.240,0.209,east-northeast,4.4,Yes
2015/10/19,16:30,0.511,0.291,0.532,0.487,0.454,0.238,0.210,east,3.8,Yes
2015/10/19,16:40,0.512,0.291,0.528,0.485,0.458,0.238,0.208,east,4.3,Yes
2015/10/19,16:50,0.509,0.292,0.530,0.485,0.453,0.238,0.209,east,4.7,Yes
2015/10/19,17:00,0.514,0.290,0.529,0.484,0.457,0.239,0.209,east,3.6,Yes
2015/10/19,17:10,0.509,0.292,0.532,0.487,0.456,0.238,0.210,east,2.6,Yes
2015/10/19,17:20,0.516,0.292,0.532,0.486,0.457,0.239,0.209,east-northeast,2.2,Yes
2015/10/19,17:30,0.512,0.296,0.536,0.487,0.457,0.239,0.210,east,3.5,Yes
2015/10/19,17:40,0.516,0.292,0.530,0.486,0.458,0.240,0.210,east,2.9,Yes
2015/10/19,17:50,0.510,0.294,0.532,0.488,0.455,0.239,0.211,east,1.7,Yes
2015/10/19,18:00,0.515,0.292,0.528,0.483,0.458,0.239,0.209,east,3.1,Yes
2015/10/19,18:10,0.513,0.293,0.531,0.486,0.456,0.237,0.208,east,2.5,Yes
2015/10/19,18:20,0.515,0.291,0.528,0.484,0.457,0.239,0.208,east,1.9,Yes
2015/10/19,18:30,0.510,0.291,0.529,0.487,0.454,0.237,0.209,east-northeast,1.0,No
2015/10/19,18:40,0.513,0.290,0.527,0.482,0.457,0.237,0.209,north-northeast,0.5,Yes
2015/10/19,18:50,0.510,0.290,0.529,0.486,0.453,0.238,0.209,north,0.6,Yes
2015/10/19,19:00,0.512,0.290,0.525,0.482,0.454,0.238,0.209,north-northwest,0.6,Yes
2015/10/19,19:10,0.510,0.290,0.526,0.485,0.452,0.238,0.208,north,2.4,No
2015/10/19,19:20,0.511,0.290,0.525,0.482,0.456,0.237,0.209,north,2.2,Yes
2015/10/19,19:30,0.510,0.288,0.528,0.485,0.453,0.237,0.208,north,2.2,Yes
2015/10/19,19:40,0.513,0.290,0.525,0.482,0.456,0.238,0.209,north-northwest,2.5,Yes
2015/10/19,19:50,0.510,0.289,0.527,0.485,0.452,0.238,0.209,north-northwest,2.5,No
2015/10/19,20:00,0.513,0.291,0.526,0.480,0.457,0.238,0.209,northwest,1.9,Yes
2015/10/19,20:10,0.511,0.288,0.526,0.484,0.453,0.237,0.208,north-northwest,2.2,Yes
2015/10/19,20:20,0.511,0.290,0.527,0.482,0.456,0.238,0.208,northwest,1.8,Yes
2015/10/19,20:30,0.510,0.288,0.524,0.484,0.454,0.238,0.208,north-northwest,1.5,Yes
2015/10/19,20:40,0.509,0.291,0.528,0.479,0.456,0.238,0.208,northwest,1.1,Yes
2015/10/19,20:50,0.512,0.289,0.526,0.485,0.454,0.238,0.209,west,1.0,Yes
2015/10/19,21:00,0.510,0.290,0.528,0.481,0.457,0.238,0.208,northwest,1.5,Yes
2015/10/19,21:10,0.513,0.289,0.526,0.485,0.452,0.238,0.209,west-northwest,1.2,Yes
2015/10/19,21:20,0.510,0.290,0.527,0.480,0.456,0.237,0.209,northwest,0.7,Yes
2015/10/19,21:30,0.512,0.287,0.524,0.485,0.452,0.238,0.209,west-northwest,0.8,Yes
2015/10/19,21:40,0.509,0.290,0.526,0.481,0.457,0.237,0.209,-,CALM,No
2015/10/19,21:50,0.514,0.287,0.525,0.484,0.451,0.239,0.208,west-northwest,0.5,No
2015/10/19,22:00,0.508,0.289,0.527,0.481,0.455,0.237,0.208,-,CALM,No
2015/10/19,22:10,0.513,0.288,0.524,0.483,0.453,0.237,0.208,west-southwest,1.3,Yes
2015/10/19,22:20,0.508,0.288,0.526,0.481,0.456,0.238,0.208,west-southwest,0.9,No
2015/10/19,22:30,0.512,0.288,0.524,0.483,0.453,0.237,0.208,south,1.0,No
2015/10/19,22:40,0.507,0.288,0.528,0.481,0.457,0.237,0.208,west-southwest,1.2,No
2015/10/19,22:50,0.511,0.287,0.522,0.483,0.452,0.236,0.208,south-southwest,1.9,No
2015/10/19,23:00,0.507,0.289,0.527,0.481,0.455,0.236,0.208,southwest,1.3,No
2015/10/19,23:10,0.513,0.287,0.523,0.481,0.452,0.236,0.208,south-southwest,1.6,No
2015/10/19,23:20,0.511,0.289,0.527,0.482,0.457,0.236,0.209,south-southwest,1.5,No
2015/10/19,23:30,0.511,0.288,0.523,0.481,0.451,0.237,0.208,south-southeast,1.1,Yes
2015/10/19,23:40,0.510,0.288,0.526,0.482,0.456,0.235,0.210,southwest,1.1,No
2015/10/19,23:50,0.510,0.286,0.522,0.482,0.452,0.237,0.207,southwest,1.7,No
